347  
ASUS42 KCHS 232027  
RWRCHS  
 
REGIONAL WEATHER ROUNDUP  
NATIONAL WEATHER SERVICE CHARLESTON SC  
300 PM EST SUN FEB 23 2020  
 
NOTE: "FAIR" INDICATES FEW OR NO CLOUDS BELOW 12,000 FEET WITH NO  
SIGNIFICANT WEATHER AND/OR S TO VISIBILITY
.  
 
NOT ALL STATIONS ARE QUALITY CONTROLLED. USE DATA WITH CAUTION,  
ESPECIALLY DEWPOINT OBSERVATIONS.  
 
SCZ027-030-031-034>040-042>050-232100-   
..SOUTHEAST SOUTH CAROLINA
 
 
 
CITY SKY/WX TMP DP RH WIND PRES REMARKS
 
N CHARLESTON PTSUNNY 63 26 24 SE6 30.21F  
WATERFRONT PRK N/A 56 38 50 SE7 30.09F  
MOUNT PLEASANT FAIR 61 25 25 VRB3 30.21F  
JOHNS ISLAND FAIR 61 21 21 SE7 30.22F  
PINOPOLIS N/A 55 37 50 N5 30.14F  
MONCKS CORNER FAIR 63 30 29 SW3 30.20F HAZE  
SUMMERVILLE FAIR 64 28 25 NW6 30.19F  
BEAUFORT MCAS FAIR 63 33 32 E6 30.21F  
BEAUFORT ARPT FAIR 61 28 29 CALM 30.21F HAZE  
HILTON HEAD IS SUNNY 57 34 41 E6 30.23F  
WALTERBORO FAIR 63 32 31 W5 30.21F  
ALLENDALE FAIR 61 27 27 CALM 30.19F  
   
..SOUTHERN MIDLANDS AND PEE DEE
 
 
 
CITY SKY/WX TMP DP RH WIND PRES REMARKS
 
GEORGETOWN FAIR 59 30 33 E6 30.23F  
KINGSTREE FAIR 61 23 23 SW3 30.21F HAZE  
ORANGEBURG FAIR 60 23 24 S7 30.21F  
BARNWELL FAIR 63 16 16 W6 30.20F  
AIKEN FAIR 61 23 23 SW6 30.21S  
MANNING FAIR 57 23 26 S5 30.22F  
COLUMBIA PTSUNNY 60 26 27 S3 30.20F  
SUMTER NOT AVBL  
FLORENCE FAIR 62 23 22 SW9 30.21F  
MYRTLE BEACH FAIR 53 33 46 SE8 30.24F  
N MYRTLE BEACH FAIR 54 33 45 S7 30.23F  
 

 
 
GAZ063-065-086>088-099>101-113>116-118-119-134>141-150-232100-   
..SOUTHEAST GEORGIA
 
 
 
CITY SKY/WX TMP DP RH WIND PRES REMARKS
 
SAVANNAH ARPT PTSUNNY 64 33 31 E3 30.21F  
HUNTER AAF FAIR 64 34 33 SE5 30.19F  
FORT STEWART NOT AVBL  
STATESBORO FAIR 64 38 37 W8 30.20S  
SYLVANIA FAIR 64 35 33 SE3 30.21F  
CLAXTON FAIR 67 42 39 CALM 30.19F  
MILLEN FAIR 63 32 31 W3 30.20F  
METTER FAIR 65 41 41 S7 30.19F  
REIDSVILLE NOT AVBL  
   
..CSRA, CENTRAL AND FAR SOUTHEAST GEORGIA
 
 
 
CITY SKY/WX TMP DP RH WIND PRES REMARKS
 
THOMSON CLOUDY 60 26 27 W7 30.19S  
AUGUSTA-BUSH FAIR 63 25 23 E6 30.19F  
AUGUSTA-DANIEL FAIR 62 28 27 SE5 30.20F  
SWAINSBORO FAIR 63 36 36 SW3 30.20F  
VIDALIA FAIR 66 37 34 SW7 30.19F  
EASTMAN FAIR 63 31 30 W7 30.23S  
HAZLEHURST FAIR 66 40 39 SW7 30.18F  
ALMA FAIR 67 43 41 SW13 30.18F  
WAYCROSS FAIR 68 35 29 W5 30.18F  
JESUP CLOUDY 70 43 37 SW7 30.19F  
BAXLEY FAIR 63 43 48 S6 30.19S  
BRUNSWICK FAIR 64 42 45 E6 30.20F  
SAINT SIMONS FAIR 61 44 53 E9 30.21F  
 

 
 
SCZ027-028-034-036>038-045-046-048>050-GAZ119-141-232100-   
..LAKE AND SUPPLEMENTAL COASTAL OBSERVATIONS
 
 
 
STATION/POSITION TIME TEMP WIND PRES WAVE SWELL
 
AIR SEA DIR/SP/G HT/PER HT/PER/DIR  
(UTC) (F) (DEG/KT/KT) (MB) (FT/S) (FT/S/D)  
WINYAH BAY 1945 53 110/ 5 1023.0F  
LAKE MURRAY 1930 62 170/ 3/ 3 1022.0F  
CHRLSTN HARBOR 1948 55 56 130/ 7/ 7 1023.6F  
ACE BASIN NERRS 1945 59 180/ 2 1023.0F  
FORT PULASKI 1942 53 53 90/ 7/ 8 1023.8F  
SAPELO ISLAND 2000 62 100/ 5 1023.0  
 

 
 
ANZ835-935-AMZ111-154-330-350-352-354-370-450-454-472-232100-   
..C-MAN AND BUOY OBSERVATIONS
 
 
 
STATION/POSITION TIME TEMP WIND PRES WAVE SWELL
 
AIR SEA DIR/SP/G HT/PER HT/PER/DIR  
(UTC) (F) (DEG/KT/KT) (MB) (FT/S) (FT/S/D)  
BUOY 41004 2000 71 1022.9  
BUOY 41008 1950 55 57 40/ 10/ 12 1022.9F 4/12 3/100/12  
FOLLY BEACH CMAN 2000 54 70/ 6/ 6 1023.8F  
CAPERS NEARSHORE 2008 53 53 80/ 6/ 8 1024.6F  
FRIPP NEARSHORE 2008 53 56 90/ 6/ 8 1024.5F  
 
 
STATION/POSITION TIME TEMP WIND PRES WAVE SWELL
 
AIR SEA DIR/SP/G HT/PER HT/PER/DIR  
(UTC) (F) (DEG/KT/KT) (MB) (FT/S) (FT/S/D)  
5E ST. MARYS GA 2000 58 N/A 3/13 2/100/13  
FRYING PAN BUOY 2010 58 74 30/ 4/ 8 1023.2  
BUOY 41025 2000 56 74 280/ 2/ 6 1023.1  
CAPE LOOKOUT NC 2000 53 150/ 4/ 5 1023.5F  
BUOY 41002 2010 63 110/ 4/ 8 1023.9  
BUOY 41010 2010 69 110/ 4/ 8 N/A  
ST AUGUSTINE FL 2000 58 60 350/ 11/ 12 1022.5F  
 

 
 
 
CLICK HERE TO GO TO PREVIOUS BULLETINS.

The Nexlab SC Page
The Nexlab GA Page Main Text Page